Probability
61 58 61 61 58 52 48 55 42 35 39 32 19 19 26 23 26 19 26 39 42 35 32 29 29 29 29 32 32 29 29 29 26 26 29 29 23 19 16 19 16 19 19
71 61 61 65 58 58 48 55 48 45 45 39 32 32 23 32 32 26 23 29 32 39 32 29 29 29 26 29 26 26 23 26 29 29 29 23 23 19 19 19 16 16 16
71 65 65 61 61 58 55 52 48 39 42 35 39 35 35 29 35 29 19 23 23 26 32 29 29 29 26 29 26 23 23 26 26 26 26 29 26 19 16 16 16 13 13
68 65 58 55 55 55 55 58 48 42 39 39 39 45 39 48 39 26 26 26 19 16 26 29 29 29 26 23 26 13 23 29 26 26 26 23 23 16 16 16 16 13 10
61 55 52 58 52 48 48 45 48 45 39 42 39 42 42 26 23 19 23 16 19 29 16 23 23 26 26 26 26 19 19 16 26 26 23 23 23 13 10 16 13 10 6
58 58 55 61 52 48 45 45 39 35 29 29 19 13 26 26 23 19 26 19 23 19 16 16 26 23 29 26 29 26 19 16 16 23 23 23 19 13 10 6 10 10 10
55 58 52 55 45 45 48 39 32 29 29 23 19 23 23 19 26 29 26 19 19 19 16 16 16 19 23 32 26 23 23 19 13 19 19 26 23 13 13 13 10 10 10
52 39 52 45 45 42 39 39 29 26 23 19 23 19 13 19 23 16 29 26 16 19 13 13 13 13 13 10 6 16 23 19 16 13 16 19 19 19 13 13 10 10 6
52 45 48 48 55 52 32 32 29 29 19 16 16 13 13 16 16 19 19 16 19 16 13 16 13 13 16 13 10 6 16 13 19 13 10 13 13 13 10 10 10 10 10
45 48 48 42 48 45 39 32 32 32 26 19 26 23 16 16 6 10 16 16 16 16 16 16 13 13 16 19 10 3 6 10 10 10 10 10 10 10 10 10 13 10 10
42 35 42 45 48 42 39 45 35 32 29 29 29 23 19 13 10 6 6 10 10 10 16 16 16 13 19 19 16 3 3 3 6 13 10 10 6 6 10 6 6 6 10
32 32 32 42 39 39 42 39 39 32 32 32 32 29 23 13 10 6 6 6 6 10 13 23 19 23 19 13 10 3 0 0 0 3 6 10 6 6 10 10 6 6 6
32 42 26 35 35 42 42 42 45 39 32 26 32 35 23 19 19 10 6 6 10 13 16 13 19 23 19 19 6 3 0 0 0 0 0 0 0 3 3 0 3 3 6
32 35 35 32 32 32 35 42 42 32 29 29 26 35 29 23 23 13 6 13 10 13 13 13 10 13 13 16 10 0 0 0 0 0 0 0 0 0 0 0 0 0 0
35 42 42 39 35 32 29 29 32 32 29 29 29 29 23 26 23 16 23 13 13 6 6 13 6 13 13 10 0 3 6 0 0 0 0 0 0 0 0 0 0 0 0
39 35 42 39 35 32 29 29 32 29 26 26 32 29 29 23 23 23 26 26 26 19 10 13 16 6 6 0 0 6 10 0 0 0 0 0 0 0 0 0 0 0 0
42 39 42 35 32 32 26 29 26 26 29 19 26 26 26 23 26 19 26 23 16 13 10 10 6 6 13 3 0 13 3 3 0 0 0 0 0 0 0 0 0 0 0
35 39 39 42 35 35 32 32 29 26 29 26 26 29 26 19 23 16 19 19 19 16 6 6 6 3 3 3 3 6 6 6 3 0 0 0 0 0 0 0 0 0 0
35 35 29 26 26 29 32 26 29 26 26 26 32 29 26 23 26 16 19 13 16 10 6 6 6 3 3 3 3 3 3 6 0 0 0 0 0 0 0 0 0 0 0
32 26 19 16 16 19 19 26 23 26 23 23 23 19 13 16 19 16 13 13 13 13 10 3 6 3 3 3 3 3 3 3 3 0 0 0 0 0 0 0 0 0 0
26 19 13 13 16 13 16 16 19 19 29 19 16 13 6 6 6 6 6 10 10 13 6 3 3 3 6 3 3 3 3 3 3 3 3 3 0 0 0 0 0 0 0
29 16 16 10 6 6 6 6 10 23 23 26 23 13 6 6 3 0 0 0 3 6 3 3 3 3 6 6 0 0 0 0 0 6 3 3 0 3 3 3 0 0 0
19 19 13 13 6 6 3 0 3 16 16 16 19 19 6 3 3 3 0 0 0 0 0 10 6 3 6 6 3 0 0 3 0 3 10 0 6 3 3 0 0 0 0
16 16 16 13 10 6 3 0 0 0 16 16 16 13 16 13 3 6 10 0 0 0 0 3 10 3 0 6 6 0 0 3 0 10 6 0 3 0 0 0 0 0 0
19 16 10 10 13 6 3 0 0 10 16 16 13 13 16 13 3 3 10 3 3 3 0 0 0 0 0 0 0 3 3 0 3 3 3 3 3 0 3 0 0 0 0
26 16 16 16 13 13 6 0 0 10 19 16 13 10 3 3 3 0 6 6 6 3 3 0 0 0 0 0 0 6 6 3 3 0 0 0 0 0 0 6 0 0 0
Height
5858 5859 5859 5859 5859 5860 5860 5860 5861 5861 5862 5863 5864 5864 5865 5866 5868 5869 5870 5870 5872 5873 5873 5873 5874 5875 5875 5876 5877 5877 5878 5879 5879 5880 5880 5880 5880 5880 5881 5881 5881 5882 5883
5856 5856 5856 5857 5857 5857 5858 5858 5859 5859 5860 5860 5861 5863 5863 5863 5865 5867 5868 5869 5870 5871 5871 5872 5872 5873 5873 5874 5875 5875 5876 5876 5877 5877 5878 5878 5878 5878 5878 5878 5879 5879 5880
5853 5853 5853 5854 5854 5855 5855 5856 5856 5856 5857 5858 5859 5860 5861 5862 5863 5865 5866 5867 5868 5868 5869 5870 5870 5871 5871 5872 5872 5873 5873 5874 5874 5875 5875 5875 5875 5875 5875 5876 5876 5876 5877
5851 5851 5851 5851 5851 5851 5851 5853 5854 5854 5855 5855 5856 5857 5858 5859 5861 5862 5863 5864 5865 5866 5867 5867 5868 5869 5869 5869 5870 5870 5871 5871 5871 5872 5872 5872 5872 5872 5872 5873 5873 5873 5873
5848 5848 5848 5848 5849 5849 5850 5850 5851 5851 5852 5853 5853 5854 5855 5856 5858 5859 5860 5861 5862 5863 5864 5865 5865 5866 5867 5867 5867 5867 5868 5868 5868 5868 5868 5869 5869 5869 5869 5869 5869 5869 5870
5846 5846 5846 5846 5846 5847 5847 5847 5847 5848 5849 5849 5850 5851 5852 5853 5854 5856 5857 5858 5859 5860 5861 5862 5863 5864 5864 5864 5864 5864 5864 5865 5865 5865 5865 5865 5865 5865 5865 5865 5866 5866 5866
5843 5843 5844 5844 5844 5844 5844 5844 5844 5844 5845 5845 5846 5848 5849 5850 5851 5852 5853 5855 5856 5857 5858 5859 5860 5860 5861 5861 5861 5861 5861 5861 5861 5861 5861 5862 5862 5862 5862 5862 5862 5862 5862
5840 5840 5841 5841 5841 5841 5841 5841 5842 5841 5841 5842 5843 5844 5845 5847 5848 5849 5850 5851 5852 5854 5855 5856 5857 5857 5857 5858 5858 5858 5858 5858 5858 5857 5857 5857 5857 5857 5857 5857 5857 5857 5857
5837 5837 5838 5838 5838 5838 5839 5839 5839 5839 5839 5839 5840 5841 5842 5843 5844 5845 5846 5848 5849 5850 5852 5852 5853 5853 5854 5854 5855 5855 5854 5854 5854 5854 5853 5853 5853 5852 5852 5853 5853 5853 5853
5835 5835 5835 5835 5835 5835 5836 5836 5835 5835 5836 5836 5837 5838 5838 5839 5840 5842 5843 5844 5845 5847 5848 5848 5849 5850 5850 5851 5851 5851 5850 5850 5850 5849 5849 5849 5848 5848 5847 5847 5847 5848 5848
5832 5832 5832 5832 5832 5833 5833 5833 5833 5832 5833 5833 5834 5834 5835 5836 5837 5838 5840 5841 5842 5843 5844 5845 5845 5846 5846 5846 5847 5847 5847 5846 5846 5845 5844 5844 5843 5843 5842 5842 5842 5842 5842
5829 5829 5829 5829 5829 5830 5830 5830 5830 5830 5830 5830 5831 5831 5832 5833 5833 5835 5836 5837 5838 5839 5840 5840 5841 5842 5842 5842 5842 5843 5842 5842 5841 5841 5840 5839 5839 5838 5837 5836 5836 5836 5836
5826 5826 5826 5826 5827 5827 5827 5827 5827 5827 5828 5828 5828 5828 5829 5829 5830 5831 5832 5833 5834 5835 5835 5836 5837 5837 5837 5838 5838 5838 5837 5837 5836 5836 5835 5834 5834 5832 5832 5831 5831 5830 5830
5823 5823 5824 5824 5824 5824 5825 5825 5825 5825 5825 5825 5825 5826 5826 5826 5827 5828 5829 5829 5830 5831 5831 5832 5832 5832 5832 5833 5833 5833 5832 5832 5831 5831 5830 5829 5828 5827 5826 5826 5825 5824 5823
5821 5821 5821 5821 5821 5821 5821 5822 5822 5822 5822 5822 5823 5823 5823 5824 5824 5824 5825 5826 5826 5827 5827 5827 5827 5827 5827 5828 5828 5827 5827 5826 5826 5825 5824 5823 5822 5822 5820 5820 5819 5818 5817
5819 5819 5819 5818 5818 5818 5818 5818 5819 5819 5819 5819 5820 5820 5820 5821 5821 5821 5822 5822 5822 5823 5823 5822 5822 5822 5822 5823 5823 5822 5822 5821 5820 5820 5819 5818 5817 5816 5814 5813 5812 5811 5810
5817 5816 5816 5816 5816 5815 5815 5815 5815 5816 5816 5816 5817 5817 5817 5817 5818 5818 5818 5818 5818 5818 5818 5818 5818 5818 5818 5818 5817 5817 5816 5816 5815 5814 5813 5812 5811 5810 5808 5807 5806 5804 5804
5815 5814 5814 5814 5813 5813 5813 5813 5813 5813 5813 5813 5814 5814 5814 5814 5814 5814 5814 5815 5815 5814 5814 5814 5813 5813 5813 5812 5812 5811 5811 5810 5809 5809 5807 5806 5805 5803 5802 5801 5799 5798 5797
5813 5812 5812 5812 5811 5811 5810 5810 5810 5810 5810 5811 5811 5811 5811 5812 5811 5811 5811 5811 5810 5810 5810 5809 5809 5808 5808 5807 5807 5806 5804 5804 5803 5802 5801 5800 5799 5797 5796 5795 5793 5792 5791
5811 5810 5810 5809 5809 5808 5808 5808 5808 5808 5808 5808 5808 5808 5808 5809 5808 5808 5808 5807 5807 5806 5805 5805 5804 5804 5803 5802 5801 5800 5799 5798 5797 5796 5795 5794 5793 5791 5790 5789 5787 5786 5784
5808 5808 5807 5807 5807 5806 5806 5805 5805 5805 5805 5805 5805 5805 5805 5805 5805 5805 5805 5804 5803 5802 5801 5800 5800 5799 5798 5797 5796 5795 5794 5793 5792 5790 5789 5788 5787 5785 5784 5782 5781 5779 5778
5806 5805 5805 5805 5804 5804 5803 5803 5803 5803 5803 5802 5802 5803 5802 5802 5802 5801 5801 5800 5799 5798 5797 5796 5795 5794 5793 5791 5790 5789 5788 5787 5786 5785 5783 5782 5780 5779 5777 5776 5775 5773 5772
5802 5802 5802 5801 5801 5801 5801 5800 5800 5800 5799 5799 5799 5799 5798 5798 5797 5797 5796 5796 5795 5793 5792 5791 5790 5789 5787 5786 5785 5783 5782 5781 5780 5778 5777 5776 5774 5772 5771 5769 5768 5766 5765
5798 5798 5798 5798 5798 5798 5797 5797 5796 5796 5796 5795 5795 5795 5794 5793 5793 5792 5791 5791 5789 5788 5787 5786 5785 5783 5781 5780 5779 5777 5776 5774 5773 5772 5770 5769 5767 5766 5764 5762 5761 5760 5759
5794 5793 5793 5793 5793 5794 5793 5793 5793 5792 5792 5791 5791 5790 5789 5788 5787 5786 5786 5785 5784 5783 5782 5780 5779 5777 5775 5774 5773 5771 5770 5768 5767 5765 5763 5762 5760 5759 5758 5756 5754 5753 5752
5789 5789 5789 5789 5789 5789 5789 5789 5789 5788 5787 5786 5786 5785 5784 5783 5782 5781 5780 5779 5778 5777 5776 5774 5773 5771 5770 5768 5767 5765 5763 5762 5760 5758 5756 5755 5753 5752 5751 5749 5747 5746 5745
Wind_Speed
13 12 12 11 12 11 11 11 11 11 11 11 11 10 9 8 8 8 7 7 6 6 6 6 7 7 7 7 7 8 7 8 8 8 9 8 9 9 9 10 10 11 11
14 13 12 12 12 11 11 12 11 11 11 10 10 11 10 10 9 8 8 7 7 7 7 7 7 7 7 7 8 9 8 8 8 9 9 10 10 10 10 10 10 11 12
14 13 12 12 12 12 12 12 11 11 11 11 12 12 13 12 11 10 10 9 9 9 8 8 7 7 8 8 8 9 9 10 10 10 10 11 11 11 11 11 11 11 13
13 13 13 13 13 12 12 12 11 12 12 12 12 13 13 13 13 12 12 11 10 9 9 9 8 8 9 9 9 9 10 10 11 11 12 12 13 13 12 13 13 13 13
12 12 12 12 12 12 12 12 12 13 13 13 13 13 13 13 13 13 12 12 11 11 10 10 10 10 9 10 10 10 10 11 12 12 13 13 13 14 14 13 13 14 14
11 11 11 11 12 12 13 13 13 13 13 14 13 14 14 14 14 14 14 13 13 12 12 11 11 11 11 10 10 11 11 12 12 13 13 13 14 14 14 14 14 15 15
12 12 12 12 12 13 13 13 13 13 14 13 13 14 14 15 14 15 15 15 14 14 13 12 12 12 12 12 12 12 12 12 13 13 13 15 15 15 15 15 16 16 16
13 13 13 12 12 13 13 13 13 14 13 13 14 14 14 14 14 15 15 15 15 15 14 13 13 13 12 12 13 13 13 13 14 14 15 16 16 16 17 16 16 17 17
13 13 12 12 12 12 12 13 13 13 14 14 15 15 15 14 14 15 15 15 15 15 14 15 14 14 13 13 13 14 14 15 15 16 17 17 17 17 18 18 18 18 18
12 12 12 11 11 11 11 12 12 12 13 13 14 15 16 16 15 15 14 15 15 15 15 15 15 15 14 14 14 14 15 16 17 17 18 18 18 18 18 19 19 19 20
13 12 12 11 11 10 11 11 11 12 12 12 13 13 14 16 15 15 15 15 15 16 16 16 16 16 16 15 16 16 16 17 18 18 19 19 19 19 19 19 20 20 20
12 12 12 11 12 11 11 11 11 11 12 13 12 12 13 14 15 15 15 16 16 17 17 16 17 17 16 16 17 18 18 18 19 20 20 20 19 19 19 19 20 21 22
12 11 12 12 12 12 11 11 11 11 11 12 12 13 13 14 14 14 15 15 16 17 17 17 18 18 18 17 18 19 20 20 21 21 21 21 21 21 20 20 20 21 22
11 11 11 12 11 11 11 12 12 12 12 12 13 13 13 14 15 15 15 15 16 16 16 17 18 18 19 18 19 19 20 21 22 22 21 22 22 22 22 22 22 22 23
10 9 10 10 11 11 12 13 13 12 13 13 13 13 13 13 14 14 15 15 16 16 17 17 18 19 19 19 20 20 20 20 21 21 21 22 23 23 24 24 24 24 24
10 9 9 11 12 12 13 13 13 13 12 13 13 13 13 12 12 13 15 16 16 17 17 18 18 19 19 20 20 20 20 20 21 22 22 22 24 24 24 25 25 24 25
9 9 9 10 11 12 12 12 12 12 12 12 11 12 12 12 13 13 14 15 15 16 16 17 17 18 19 20 20 20 20 20 20 21 22 22 23 24 24 24 24 24 24
9 9 9 9 10 11 11 11 11 11 12 12 11 12 12 11 11 12 13 13 14 14 16 17 18 18 19 20 21 21 22 22 21 21 21 22 23 22 22 23 23 23 24
10 9 10 10 10 10 10 10 10 11 11 11 11 11 11 12 11 12 13 14 14 16 17 18 19 19 20 21 21 22 22 22 23 22 22 22 23 23 23 23 24 24 24
10 10 10 10 11 11 11 11 11 12 12 11 10 10 11 12 12 13 13 14 15 15 16 17 18 18 19 20 21 21 22 22 22 22 21 21 22 23 23 23 24 24 25
12 11 11 11 10 10 10 11 11 11 11 11 11 11 12 13 14 15 15 16 16 17 18 19 19 19 19 20 21 22 22 22 22 22 22 23 23 23 23 23 24 24 24
14 13 12 12 12 11 10 10 10 10 11 11 11 12 13 14 15 15 16 17 18 18 19 19 20 20 20 21 21 22 23 22 22 23 24 24 24 24 24 24 24 24 24
16 15 14 14 13 12 12 12 12 12 13 13 13 14 14 15 16 17 18 19 19 19 20 20 21 21 22 22 22 22 22 23 23 24 25 24 25 25 24 24 24 23 23
17 17 15 15 15 15 15 14 14 14 15 15 15 15 16 16 17 18 19 20 20 21 21 21 22 22 22 22 22 22 22 23 24 25 25 24 25 25 25 24 23 23 23
17 17 16 17 17 16 16 16 16 16 17 17 17 17 18 19 19 20 20 21 21 22 22 22 22 22 22 22 22 23 23 23 24 24 24 24 24 24 24 24 24 24 24
18 17 17 17 17 17 18 18 18 18 18 17 18 18 19 20 21 22 22 22 22 23 23 23 23 23 23 23 23 24 24 24 24 24 24 24 24 24 23 24 24 24 24
Wind_Direction
276 273 269 267 269 267 264 264 264 259 254 252 251 248 249 240 236 237 236 239 244 253 261 258 262 264 266 256 249 248 252 254 252 258 259 260 262 265 262 258 253 249 246
275 275 269 267 270 267 263 264 264 262 259 255 252 250 250 247 241 242 245 243 252 261 264 266 262 257 259 258 256 251 255 257 255 265 264 262 265 266 264 260 257 252 249
277 276 270 270 269 266 263 267 265 263 258 254 252 250 249 252 250 251 249 245 247 255 260 260 263 264 259 256 260 257 259 262 260 264 266 268 267 267 266 263 264 259 255
280 278 273 270 264 264 263 266 268 268 260 255 253 253 252 251 249 250 249 247 245 248 253 256 261 267 263 261 267 262 264 266 265 263 265 270 268 267 267 265 265 264 260
279 279 273 272 267 265 263 264 266 266 262 260 259 256 254 253 250 250 252 252 250 251 255 256 260 265 268 270 271 266 268 266 266 266 266 269 271 270 269 270 267 265 261
277 278 274 272 271 268 265 266 269 265 266 263 262 258 258 254 253 253 253 250 250 252 256 261 263 264 267 274 272 274 270 267 268 268 267 270 272 271 270 269 269 266 264
276 276 275 272 270 268 267 266 267 266 265 260 261 260 255 254 254 255 253 250 251 254 259 261 263 266 269 272 275 278 273 272 273 271 271 273 273 272 271 270 269 269 266
276 276 274 271 269 266 265 265 264 266 261 260 260 258 257 254 255 255 253 253 254 255 259 264 265 267 270 271 273 276 275 275 276 275 273 274 275 273 271 270 269 269 266
275 276 274 272 269 266 266 266 264 260 263 263 259 260 258 256 256 255 253 252 254 255 258 263 267 270 271 273 273 274 274 273 275 278 278 275 275 275 272 270 270 268 267
274 275 275 271 270 268 267 266 264 263 261 260 262 262 260 260 260 259 256 255 254 256 258 263 265 267 270 273 273 276 276 275 277 279 280 277 278 278 276 275 270 269 269
275 270 268 267 268 267 269 268 267 264 261 260 261 262 264 265 261 258 257 257 257 258 259 263 267 266 268 272 273 275 277 277 278 280 282 281 280 278 277 276 273 271 270
276 269 265 264 265 267 271 271 266 265 264 262 260 261 266 266 262 260 259 258 258 260 261 264 267 265 268 273 276 276 276 279 279 280 283 283 283 282 279 278 275 272 270
273 268 265 266 265 266 269 270 266 266 267 264 262 263 269 268 264 265 263 262 263 264 263 262 265 266 269 272 276 278 277 280 280 280 281 281 282 282 281 280 279 274 271
273 269 267 265 266 266 269 272 272 269 267 267 266 267 270 272 267 267 266 267 268 268 267 266 264 268 271 275 278 278 278 279 280 280 279 278 279 279 280 280 280 278 274
275 271 269 270 270 268 271 274 273 270 269 268 268 267 270 273 270 268 267 272 272 270 268 270 269 272 274 277 280 280 280 282 282 281 280 280 279 280 280 278 281 280 277
278 276 274 274 271 270 271 270 272 273 270 270 270 270 270 271 271 273 274 272 271 272 274 273 273 273 275 277 280 281 281 282 283 282 281 281 282 283 283 281 282 280 279
281 284 278 278 277 275 271 271 272 271 271 272 271 272 271 270 271 274 276 273 272 275 276 276 278 277 279 280 279 280 282 282 286 286 283 283 284 284 284 284 284 282 282
283 282 282 281 281 279 273 270 271 271 270 271 272 273 272 272 274 275 275 275 275 280 282 281 283 281 280 280 278 280 281 284 286 286 286 286 286 285 284 285 286 284 284
289 288 287 285 283 281 280 276 275 275 273 273 273 272 269 271 274 279 281 281 279 282 284 285 286 285 283 282 281 281 282 284 286 286 287 288 288 286 286 286 286 286 286
287 292 291 290 286 280 276 275 273 274 272 274 274 274 276 277 276 280 284 284 286 287 287 287 287 287 287 285 284 282 283 285 287 287 288 289 291 292 291 288 286 286 287
282 285 288 289 286 283 281 278 279 280 275 273 274 276 278 280 281 283 286 288 290 291 293 293 291 290 290 290 288 285 286 288 290 290 290 291 292 293 292 291 290 289 287
277 279 280 285 283 281 285 285 284 288 288 282 279 279 279 280 281 283 285 288 292 293 293 293 294 295 294 293 290 289 288 289 290 290 290 292 293 293 292 291 290 289 287
276 278 275 279 278 278 280 279 280 283 287 289 285 283 283 283 282 284 285 287 290 292 292 292 293 294 293 294 293 290 289 290 291 291 291 291 292 293 292 292 291 289 287
276 276 276 275 273 274 276 277 277 281 283 286 285 284 284 284 285 286 286 287 288 290 293 294 294 294 295 295 294 292 291 292 292 291 290 291 292 294 294 292 291 290 288
274 273 275 273 270 269 272 274 277 280 283 284 284 284 284 284 287 288 286 287 290 292 294 295 294 294 295 296 295 294 294 293 293 292 291 291 292 293 294 292 291 290 288
273 272 273 271 268 267 269 273 276 281 283 282 282 284 285 286 286 287 286 285 289 292 293 293 293 294 295 295 295 296 296 296 296 294 292 292 291 292 292 292 292 290 288